Location: Tucson
(32.2217°N, 110.9265°W)
Time: 00:44:52
(UTC-07:00)

Hubble Space Telescope - Visible Passes

Search period start: 25 November 2017 00:00
Search period end: 05 December 2017 00:00
Orbit: 537 x 541 km, 28.5° (Epoch: 24 November)

Date Brightness Start Highest point End Pass type
(mag) Time Alt. Az. Time Alt. Az. Time Alt. Az.
25 Nov 3.1 04:32:57 21° SE 04:32:57 21° SE 04:34:31 10° ESE visible
25 Nov 2.5 06:08:19 10° WSW 06:11:26 22° SSW 06:14:39 10° SSE visible
26 Nov 3.6 04:23:23 15° SE 04:23:23 15° SE 04:24:13 10° ESE visible
26 Nov 2.7 05:58:45 12° WSW 06:01:08 18° SSW 06:04:00 10° SSE visible
27 Nov 4.0 04:13:51 10° SE 04:13:51 10° SE 04:13:52 10° SE visible
27 Nov 2.9 05:49:12 12° SW 05:50:50 15° SSW 05:53:10 10° SSE visible
28 Nov 3.1 05:39:40 11° SW 05:40:30 12° SSW 05:41:58 10° S visible
